"Pseudo-MPEC" for P11JDwG

Created 2023 Sep 19 11:22:30 UT using Find_Orb

Click here for an explanation of pseudo-MPECs

 
 Astrometry: 
     P11JDwG  C2023 09 11lfVN0!*PTYC4TEZfy/;a*1P_[\(0NngWX)24fuWT)V4pUxPJ9Z6jF51
     P11JDwG  C2023 09 11?R%Z6*)#a;,sX@9-Qm7-\a=Z7gMq#q7/wmj3wM69hvf=Z.HMEVc`F51
     P11JDwG  C2023 09 11sCw:KnB_M?,qR^xBwA?=A\wO*%N:h4gfe(74FYsMSZE+wNom2`)dF51
     P11JDwG  C2023 09 11igi(W,oCrQ4,wHY%!9$`W!hL@5Astrometry9Z#I`lgh#N7!Fi5RF51
     P11JDwG* C2023 09 15@]ey8%#y6%A=yWVYOY(5%JW(xI)xls*20ofINieHC(GT^Z*q=svgF51
     P11JDwG  C2023 09 15Q$?bql[!XkJDnyhJd6HF8^rredacted;`U5Z+VecueKl1`GCRrBqF51
     P11JDwG  C2023 09 150K5s58OM16\clickJgW5P,TVS?HL^IwHtfIG!;vNf0'jQ8%(D3^wF51
     P11JDwG  C2023 09 15RTRo#$-LVVBY!DtQL!7\.hthJr!bpT=#@Z0F6fYE!WtR)uJt1Yc+F51
     P11JDwG 0B2023 09 16!gWP'0G)3gdxgTdg3dhD8tNgEHxXe]YS:5]BF*K3Ki18xPYen!0,M49
     P11JDwG 0B2023 09 16u^s@`qxT13HGpjmTpZ%9Fq7vP#DQ3PK#GetyE(1X*X(u%\k_;*+fM49
     P11JDwG 0B2023 09 16v[py%!f/(72O`NHB9ZMqcHPym6oQu[M1RjSl[]fhered:Mmo,vvXM49
     P11JDwG 3C2023 09 189D.9kxbwNC$9O+))Q]5J]OQPk6AwH[uWNg/6]3Bvc'ZlY=dHAGwrK92
     P11JDwG 3C2023 09 18QBsB=JjxE!f1pfor*n*MEmT%9gv#5%fexplanation60bcR3CXYDK92
     P11JDwG 3C2023 09 18_y/U*X_1#,?\y-X#vv\=3l%Py_dBw@#v*2bLke21!2rYinVK1CqkK92
     P11JDwG 3C2023 09 18spP7ln43K1=8kY]xPnybfXQ4hVeNk9DAP7j?$o*uaOT%2RVZ+=JiK92

Station data:
(F51) Pan-STARRS 1, Haleakala  (N20.707234 W156.255910)  US/Hawaii.
   Observers J. Bulger, T. Lowe, A. Schultz, M. Willman. Measurers K.
   Chambers, S. Chastel, T. de Boer, L. Denneau, J. Fairlamb, H. Flewelling,
   M. Huber, C.-C. Lin, E. Magnier, Y. Ramanjooloo, R. Wainscoat, R. Weryk.
   1.8-m Ritchey-Chrétien + CCD.
(K92) Sutherland-LCO B  (S32.380540 E20.810040)  South Africa.  Observers T.
   Lister, S. Greenstreet, E. Gomez. Measurer S. Greenstreet. 1.0-m f/6.3
   Cassegrain + CCD.
(M49) IAS Remote Observatory, Hakos  (S23.236549 E16.361720)  Namibia.
   Observers D. Husar, M. Junius. Measurer D. Husar. 0.25-m f/4.6 reflector +
   CCD.

Orbital elements:  P11JDwG
   Perihelion 2023 Aug 24.71007 +/- 0.379 TT = 17:02:30 (JD 2460181.21007)
Epoch 2023 Sep 18.0 TT = JDT 2460205.5   Earth MOID: 0.8388      AutoNEOCP
M   5.53100679 +/- 0.07             (J2000 ecliptic)
n   0.22770784 +/- 0.000728         Peri.  237.32749 +/- 0.22
a   2.65593463 +/- 0.00566          Node   122.38953 +/- 0.06
e   0.3219652 +/- 0.0013            Incl.   14.53039 +/- 0.012
P   4.33                   H 17.94  G  0.15   U  7.9
q 1.80081595 +/- 0.000769    Q 3.51105331 +/- 0.0109
From 15 observations 2023 Sept. 11-18; mean residual 0".08
Residuals in arcseconds: 
230911 F51  .02+  .03+    230915 F51  .01+  .01+    230916 M49  .29-  .08-    
230911 F51  .03+  .04-    230915 F51  .01+  .01-    230918 K92  .05+  .15-    
230911 F51  .00   .01+    230915 F51  .03+  .02-    230918 K92  .05-  .18+    
230911 F51  .05-  .00     230916 M49  .01+  .08+    230918 K92  .00   .01+    
230915 F51  .00   .01+    230916 M49  .04-  .10+    230918 K92  .04+  .05-    

Ephemerides (geocentric):
Date (UTC) HH   RA             Dec           delta  r     elong  mag " sig PA
---- --------  ------------   ------------  ------ ------ -----  --- --------
2023 09 19 11  02 27 58.275   -14 01 26.45  .93516 1.8105 137.9 20.1 .231  74
2023 09 19 12  02 27 58.591   -14 01 56.53  .93503 1.8105 137.9 20.1 .235  74
2023 09 19 13  02 27 58.904   -14 02 26.61  .93490 1.8106 137.9 20.1 .240  74
2023 09 19 14  02 27 59.212   -14 02 56.67  .93477 1.8106 138.0 20.1 .245  74
2023 09 19 15  02 27 59.517   -14 03 26.73  .93465 1.8106 138.0 20.1 .250  74
2023 09 19 16  02 27 59.817   -14 03 56.79  .93452 1.8107 138.0 20.1 .255  74
2023 09 19 17  02 28 00.113   -14 04 26.83  .93439 1.8107 138.0 20.1 .260  74
2023 09 19 18  02 28 00.405   -14 04 56.87  .93426 1.8107 138.1 20.1 .265  74
2023 09 19 19  02 28 00.693   -14 05 26.91  .93413 1.8107 138.1 20.1 .271  74
2023 09 19 20  02 28 00.978   -14 05 56.93  .93401 1.8108 138.1 20.1 .276  74
2023 09 19 21  02 28 01.258   -14 06 26.95  .93388 1.8108 138.2 20.1 .281  74
2023 09 19 22  02 28 01.534   -14 06 56.96  .93375 1.8108 138.2 20.1 .286  74
2023 09 19 23  02 28 01.806   -14 07 26.97  .93363 1.8109 138.2 20.1 .292  74
2023 09 20 00  02 28 02.073   -14 07 56.96  .93350 1.8109 138.2 20.1 .297  74
2023 09 20 01  02 28 02.337   -14 08 26.95  .93337 1.8109 138.3 20.1 .302  74
2023 09 20 02  02 28 02.597   -14 08 56.93  .93325 1.8110 138.3 20.1 .308  74
2023 09 20 03  02 28 02.853   -14 09 26.91  .93312 1.8110 138.3 20.1 .313  74
2023 09 20 04  02 28 03.105   -14 09 56.87  .93300 1.8110 138.3 20.1 .319  74
2023 09 20 05  02 28 03.352   -14 10 26.83  .93287 1.8111 138.4 20.1 .324  74
2023 09 20 06  02 28 03.596   -14 10 56.78  .93275 1.8111 138.4 20.1 .330  74
2023 09 20 07  02 28 03.836   -14 11 26.73  .93262 1.8111 138.4 20.1 .336  74
2023 09 20 08  02 28 04.071   -14 11 56.66  .93250 1.8112 138.4 20.1 .341  74
2023 09 20 09  02 28 04.303   -14 12 26.59  .93238 1.8112 138.5 20.1 .347  74
2023 09 20 10  02 28 04.530   -14 12 56.51  .93225 1.8112 138.5 20.1 .353  74
2023 09 20 11  02 28 04.754   -14 13 26.42  .93213 1.8113 138.5 20.1 .359  74
2023 09 20 12  02 28 04.973   -14 13 56.33  .93200 1.8113 138.6 20.1 .365  74
2023 09 20 13  02 28 05.189   -14 14 26.22  .93188 1.8113 138.6 20.1 .370  74
2023 09 20 14  02 28 05.400   -14 14 56.11  .93176 1.8114 138.6 20.1 .376  74
2023 09 20 15  02 28 05.607   -14 15 25.99  .93164 1.8114 138.6 20.1 .382  74
2023 09 20 16  02 28 05.811   -14 15 55.86  .93151 1.8114 138.7 20.1 .388  74
2023 09 20 17  02 28 06.010   -14 16 25.72  .93139 1.8115 138.7 20.1 .394  74
2023 09 20 18  02 28 06.205   -14 16 55.57  .93127 1.8115 138.7 20.1 .401  74
2023 09 20 19  02 28 06.397   -14 17 25.41  .93115 1.8115 138.7 20.1 .407  74
2023 09 20 20  02 28 06.584   -14 17 55.25  .93103 1.8116 138.8 20.1 .413  74
2023 09 20 21  02 28 06.767   -14 18 25.08  .93091 1.8116 138.8 20.1 .419  74
2023 09 20 22  02 28 06.946   -14 18 54.90  .93079 1.8116 138.8 20.1 .425  74
2023 09 20 23  02 28 07.121   -14 19 24.70  .93067 1.8117 138.8 20.1 .432  74
2023 09 21 00  02 28 07.293   -14 19 54.50  .93055 1.8117 138.9 20.1 .438  74
2023 09 21 01  02 28 07.460   -14 20 24.30  .93043 1.8117 138.9 20.1 .444  74
2023 09 21 02  02 28 07.623   -14 20 54.08  .93031 1.8118 138.9 20.1 .451  74
2023 09 21 03  02 28 07.782   -14 21 23.85  .93019 1.8118 138.9 20.1 .457  74
2023 09 21 04  02 28 07.937   -14 21 53.61  .93007 1.8118 139.0 20.1 .464  74
2023 09 21 05  02 28 08.088   -14 22 23.37  .92995 1.8119 139.0 20.1 .470  74
2023 09 21 06  02 28 08.235   -14 22 53.11  .92983 1.8119 139.0 20.1 .477  74
2023 09 21 07  02 28 08.378   -14 23 22.85  .92971 1.8119 139.1 20.1 .484  74
2023 09 21 08  02 28 08.517   -14 23 52.58  .92960 1.8120 139.1 20.1 .490  75
2023 09 21 09  02 28 08.652   -14 24 22.29  .92948 1.8120 139.1 20.1 .497  75
2023 09 21 10  02 28 08.783   -14 24 52.00  .92936 1.8120 139.1 20.1 .504  75